This is the latest recevied weather packets stored in our database for station/object YD8XVB-13. If no packets are shown the sender has not sent any weather packets the latest 10 day(s).
| Time | Temp. | Humidity | Pressure | Rain* | Wind** | Luminosity | Snow |
|---|---|---|---|---|---|---|---|
| 1777187036 | 33.89° C | 95% | 0 hPa | - | - | 0 W/m² | - |
| 1777186736 | 33.89° C | 86% | 0 hPa | - | - | 0 W/m² | - |
| 1777186436 | 33.89° C | 95% | 0 hPa | - | - | 0 W/m² | - |
| 1777186137 | 33.33° C | 95% | 0 hPa | - | - | 0 W/m² | - |
| 1777185836 | 33.33° C | 95% | 0 hPa | - | - | 0 W/m² | - |
| 1777185536 | 35° C | 95% | 0 hPa | - | - | 0 W/m² | - |
| 1777185236 | 35.56° C | 11% | 0 hPa | - | - | 0 W/m² | - |
| 1777184936 | 35.56° C | 10% | 0 hPa | - | - | 0 W/m² | - |
| 1777184636 | 35.56° C | 11% | 0 hPa | - | - | 0 W/m² | - |
| 1777184336 | 36.67° C | 11% | 0 hPa | - | - | 0 W/m² | - |
| 1777184036 | 37.22° C | 11% | 0 hPa | - | - | 0 W/m² | - |
| 1777183736 | 37.22° C | 26% | 0 hPa | - | - | 0 W/m² | - |
| 1777183435 | 35.56° C | 11% | 0 hPa | - | - | 0 W/m² | - |
| 1777183136 | 37.78° C | 12% | 0 hPa | - | - | 0 W/m² | - |
| 1777182835 | 37.78° C | 11% | 0 hPa | - | - | 0 W/m² | - |
| 1777182535 | 37.22° C | 18% | 0 hPa | - | - | 0 W/m² | - |
| 1777182236 | 35° C | 10% | 0 hPa | - | - | 0 W/m² | - |
| 1777181935 | 35.56° C | 10% | 0 hPa | - | - | 0 W/m² | - |
| 1777181635 | 37.78° C | 12% | 0 hPa | - | - | 0 W/m² | - |
| 1777181335 | 36.67° C | 11% | 0 hPa | - | - | 0 W/m² | - |
| 1777181036 | 36.67° C | 11% | 0 hPa | - | - | 0 W/m² | - |
| 1777180735 | 37.78° C | 11% | 0 hPa | - | - | 0 W/m² | - |
| 1777180435 | 36.67° C | 11% | 0 hPa | - | - | 0 W/m² | - |
| 1777180135 | 36.67° C | 11% | 0 hPa | - | - | 0 W/m² | - |
| 1777179835 | 38.33° C | 12% | 0 hPa | - | - | 0 W/m² | - |
* Rain since midnight (hover to see other rain measurements)
** Current wind speed in m/s (hover to see current wind gust speed)